Temp
-13 -13 -14 -15 -17 -17 -17 -17 -18 -19 -20 -21 -21 -20 -18 -17 -16 -15 -15 -13 -13 -14 -14 -13 -13 -13 -13 -13 -13 -14 -13 -13 -13 -13 -12 -12 -12 -12 -11 -11 -11 -11 -11 -11
-13 -14 -14 -15 -18 -17 -17 -17 -18 -19 -21 -21 -21 -19 -18 -18 -16 -16 -14 -13 -13 -13 -13 -13 -13 -14 -13 -13 -13 -13 -13 -13 -13 -13 -13 -12 -12 -12 -12 -12 -12 -12 -11 -11
-14 -14 -14 -15 -17 -17 -17 -17 -17 -17 -18 -18 -19 -18 -17 -17 -16 -15 -14 -14 -14 -13 -13 -13 -13 -14 -13 -13 -13 -13 -13 -13 -13 -13 -13 -13 -13 -13 -12 -12 -12 -11 -11 -11
-14 -14 -14 -14 -17 -17 -17 -16 -18 -17 -18 -18 -18 -17 -16 -16 -15 -15 -15 -14 -15 -14 -13 -14 -13 -14 -13 -13 -13 -13 -13 -13 -13 -13 -13 -12 -12 -12 -12 -12 -12 -12 -12 -12
-14 -15 -14 -14 -16 -17 -17 -16 -17 -17 -17 -18 -17 -17 -16 -17 -15 -15 -15 -14 -13 -13 -13 -13 -14 -14 -14 -14 -13 -13 -13 -12 -12 -13 -12 -12 -12 -12 -12 -12 -13 -13 -13 -13
-15 -15 -15 -15 -15 -17 -17 -16 -17 -17 -16 -17 -17 -17 -16 -16 -16 -16 -15 -14 -13 -14 -14 -13 -14 -13 -14 -14 -13 -13 -13 -13 -13 -13 -13 -13 -13 -13 -13 -13 -13 -13 -13 -13
-15 -15 -15 -15 -15 -17 -18 -16 -16 -17 -17 -17 -17 -17 -17 -16 -16 -16 -16 -16 -15 -16 -13 -13 -14 -12 -13 -13 -13 -13 -13 -13 -13 -13 -12 -13 -13 -13 -13 -13 -13 -13 -13 -14
-15 -15 -15 -15 -15 -15 -18 -17 -16 -17 -17 -17 -17 -17 -16 -16 -16 -16 -15 -15 -15 -15 -15 -14 -13 -13 -13 -13 -13 -13 -13 -13 -13 -13 -13 -13 -13 -13 -13 -13 -13 -13 -13 -13
-15 -15 -15 -15 -16 -16 -16 -18 -17 -16 -16 -17 -17 -17 -17 -16 -16 -16 -16 -16 -16 -15 -15 -15 -14 -13 -13 -13 -13 -12 -13 -13 -13 -12 -13 -13 -13 -13 -13 -13 -13 -13 -13 -13
-16 -16 -16 -16 -16 -16 -16 -17 -18 -18 -17 -17 -16 -17 -16 -16 -16 -16 -16 -15 -15 -16 -15 -15 -15 -14 -14 -14 -14 -13 -13 -13 -13 -13 -12 -13 -13 -13 -13 -13 -13 -13 -14 -14
-16 -16 -16 -16 -16 -16 -16 -16 -18 -18 -18 -18 -17 -17 -17 -17 -17 -16 -16 -16 -16 -17 -16 -16 -16 -15 -15 -15 -15 -14 -14 -14 -14 -14 -14 -14 -14 -14 -14 -14 -14 -14 -15 -15
-16 -16 -16 -16 -17 -17 -17 -17 -17 -19 -19 -19 -19 -18 -18 -18 -17 -17 -17 -17 -16 -17 -16 -16 -16 -16 -16 -16 -16 -15 -15 -15 -15 -15 -16 -16 -15 -15 -15 -15 -16 -16 -16 -16
-17 -16 -16 -16 -17 -17 -17 -17 -17 -18 -19 -19 -19 -19 -19 -19 -18 -18 -18 -17 -17 -17 -17 -16 -16 -17 -16 -16 -16 -15 -15 -16 -16 -16 -17 -17 -17 -17 -17 -17 -17 -17 -17 -17
-17 -17 -16 -17 -17 -17 -17 -17 -17 -18 -18 -19 -19 -19 -19 -19 -19 -19 -18 -18 -18 -18 -18 -18 -17 -17 -17 -17 -17 -17 -17 -17 -17 -17 -17 -17 -17 -17 -17 -17 -17 -17 -17 -17
-17 -17 -17 -17 -17 -18 -18 -17 -17 -18 -18 -19 -19 -20 -20 -20 -20 -20 -19 -19 -18 -18 -18 -18 -18 -18 -18 -17 -17 -17 -18 -18 -17 -17 -18 -18 -19 -19 -19 -19 -19 -19 -19 -19
-17 -17 -17 -17 -17 -18 -18 -18 -18 -18 -19 -19 -19 -20 -20 -20 -21 -21 -21 -20 -20 -19 -19 -20 -19 -19 -19 -19 -19 -19 -19 -19 -19 -19 -19 -19 -19 -19 -19 -20 -20 -20 -20 -20
-18 -18 -18 -18 -18 -18 -18 -18 -18 -18 -19 -19 -19 -20 -20 -20 -20 -20 -21 -21 -21 -21 -20 -20 -20 -20 -20 -20 -20 -20 -20 -20 -20 -19 -19 -19 -20 -20 -20 -20 -20 -21 -21 -21
-18 -18 -18 -18 -18 -18 -19 -19 -19 -19 -19 -19 -19 -19 -19 -20 -20 -20 -21 -21 -21 -21 -21 -20 -20 -20 -20 -20 -20 -19 -19 -19 -19 -19 -19 -19 -19 -19 -19 -19 -19 -19 -20 -20
-18 -18 -18 -18 -19 -18 -19 -19 -19 -19 -19 -19 -19 -20 -20 -20 -20 -20 -20 -20 -20 -20 -20 -20 -20 -20 -20 -20 -20 -20 -19 -19 -19 -19 -19 -20 -20 -20 -20 -20 -20 -20 -20 -20
-18 -18 -19 -19 -19 -19 -19 -20 -20 -20 -19 -19 -20 -20 -21 -21 -20 -20 -20 -20 -20 -20 -20 -20 -20 -21 -21 -21 -21 -21 -20 -20 -20 -20 -20 -20 -20 -20 -20 -20 -20 -20 -21 -21
-18 -19 -19 -19 -19 -19 -20 -20 -20 -20 -20 -20 -20 -20 -20 -20 -20 -21 -21 -21 -21 -21 -21 -21 -21 -21 -21 -21 -21 -21 -21 -21 -21 -21 -21 -21 -21 -21 -22 -22 -22 -22 -22 -22
-19 -19 -19 -19 -20 -20 -20 -20 -20 -20 -21 -21 -21 -21 -21 -21 -21 -21 -21 -21 -21 -21 -22 -22 -22 -22 -22 -22 -22 -22 -22 -22 -22 -22 -22 -22 -22 -22 -22 -22 -23 -23 -22 -22
-19 -19 -19 -20 -20 -20 -20 -21 -21 -21 -21 -21 -21 -21 -21 -21 -21 -22 -22 -22 -22 -22 -22 -22 -22 -22 -22 -23 -22 -22 -22 -22 -22 -23 -23 -23 -22 -22 -22 -22 -22 -23 -23 -23
-19 -19 -19 -20 -20 -20 -21 -21 -21 -21 -21 -21 -21 -21 -21 -22 -22 -22 -22 -22 -22 -22 -22 -23 -23 -23 -23 -23 -23 -23 -23 -23 -23 -23 -23 -23 -23 -23 -23 -23 -23 -23 -24 -24
-19 -19 -20 -20 -20 -20 -21 -21 -21 -21 -21 -21 -22 -22 -22 -22 -22 -22 -22 -22 -23 -23 -23 -23 -23 -23 -24 -23 -23 -23 -23 -23 -23 -24 -24 -24 -24 -24 -24 -24 -23 -24 -25 -25
-20 -20 -20 -20 -20 -20 -21 -21 -21 -22 -22 -22 -22 -22 -22 -22 -23 -23 -23 -23 -23 -23 -23 -23 -23 -24 -24 -24 -24 -24 -23 -24 -24 -23 -24 -24 -24 -24 -24 -24 -24 -24 -25 -25
Height
5699 5693 5685 5677 5670 5664 5657 5644 5633 5626 5622 5624 5633 5639 5649 5660 5671 5686 5700 5712 5721 5727 5734 5739 5743 5748 5754 5758 5762 5766 5770 5774 5777 5779 5783 5787 5790 5792 5793 5795 5797 5800 5801 5801
5695 5689 5682 5674 5668 5662 5654 5645 5635 5626 5619 5625 5633 5640 5645 5651 5668 5685 5698 5708 5714 5722 5729 5734 5737 5742 5747 5751 5756 5760 5764 5767 5771 5774 5776 5779 5782 5784 5787 5789 5790 5791 5791 5792
5690 5686 5680 5671 5666 5662 5656 5647 5641 5636 5633 5635 5639 5645 5646 5654 5672 5685 5696 5705 5710 5715 5722 5728 5732 5738 5742 5746 5750 5754 5758 5761 5764 5767 5770 5773 5775 5777 5778 5779 5780 5782 5784 5785
5688 5682 5678 5672 5665 5662 5658 5654 5649 5647 5645 5646 5648 5653 5657 5662 5672 5682 5693 5703 5706 5714 5720 5722 5727 5732 5736 5739 5743 5745 5749 5752 5756 5759 5761 5764 5766 5768 5769 5771 5772 5772 5774 5775
5685 5679 5675 5671 5665 5662 5660 5658 5656 5652 5653 5653 5653 5656 5662 5666 5671 5682 5692 5701 5698 5708 5709 5715 5722 5723 5727 5731 5735 5738 5740 5743 5746 5749 5752 5755 5756 5758 5759 5761 5762 5763 5764 5765
5682 5677 5674 5671 5666 5662 5661 5659 5658 5657 5655 5656 5656 5659 5659 5668 5674 5680 5685 5690 5695 5703 5707 5711 5715 5710 5713 5723 5726 5730 5735 5737 5738 5739 5741 5745 5747 5748 5750 5751 5753 5753 5754 5755
5678 5674 5673 5670 5666 5662 5662 5659 5658 5659 5657 5658 5658 5660 5661 5667 5672 5677 5682 5685 5687 5690 5700 5704 5708 5705 5709 5714 5719 5720 5726 5729 5731 5732 5733 5736 5737 5738 5738 5740 5743 5744 5745 5746
5675 5672 5670 5668 5666 5661 5660 5660 5659 5659 5659 5660 5662 5663 5664 5668 5671 5673 5678 5681 5684 5688 5691 5696 5697 5698 5705 5710 5713 5716 5716 5721 5723 5724 5725 5725 5729 5728 5729 5731 5733 5734 5736 5732
5673 5669 5667 5667 5664 5662 5658 5659 5660 5658 5660 5660 5663 5665 5667 5668 5669 5672 5677 5680 5682 5683 5685 5686 5686 5692 5696 5702 5706 5708 5709 5710 5712 5715 5716 5713 5717 5719 5720 5719 5723 5723 5721 5722
5670 5667 5665 5665 5663 5661 5658 5658 5658 5658 5659 5659 5661 5664 5666 5668 5668 5670 5673 5676 5678 5679 5682 5683 5685 5685 5686 5690 5694 5697 5700 5698 5698 5701 5702 5706 5706 5706 5708 5710 5709 5710 5709 5708
5666 5664 5664 5662 5661 5659 5657 5656 5654 5655 5657 5657 5658 5662 5664 5665 5667 5670 5672 5673 5673 5676 5678 5679 5680 5681 5682 5683 5684 5688 5690 5691 5690 5692 5691 5693 5695 5697 5697 5697 5697 5697 5697 5696
5663 5661 5659 5660 5659 5657 5655 5654 5653 5651 5654 5655 5656 5659 5659 5661 5664 5666 5668 5669 5671 5672 5674 5675 5675 5677 5679 5679 5681 5682 5683 5683 5684 5685 5686 5686 5688 5688 5687 5687 5687 5688 5688 5686
5660 5657 5656 5656 5657 5654 5652 5652 5652 5651 5650 5652 5653 5655 5656 5658 5660 5661 5663 5665 5668 5669 5669 5671 5671 5672 5673 5674 5675 5676 5676 5676 5677 5677 5678 5678 5678 5678 5677 5677 5676 5676 5674 5674
5656 5654 5652 5652 5651 5650 5648 5647 5648 5649 5648 5648 5650 5651 5652 5654 5657 5658 5659 5661 5662 5663 5665 5665 5666 5667 5667 5668 5669 5669 5669 5668 5668 5669 5670 5670 5670 5669 5669 5669 5669 5667 5666 5665
5652 5651 5649 5647 5647 5645 5644 5644 5644 5645 5646 5645 5646 5646 5648 5650 5652 5654 5655 5657 5658 5659 5659 5660 5661 5661 5661 5661 5661 5661 5661 5662 5662 5661 5658 5657 5656 5656 5656 5656 5656 5655 5654 5652
5646 5646 5644 5643 5641 5640 5639 5639 5639 5640 5641 5642 5641 5642 5644 5645 5647 5649 5650 5652 5653 5653 5653 5654 5654 5654 5654 5654 5654 5654 5653 5653 5653 5652 5652 5652 5651 5650 5648 5647 5645 5644 5642 5641
5639 5639 5639 5639 5635 5635 5638 5634 5634 5635 5635 5637 5638 5639 5639 5641 5642 5642 5644 5646 5647 5648 5648 5648 5648 5648 5649 5648 5647 5647 5646 5646 5644 5643 5641 5640 5638 5637 5636 5635 5633 5632 5631 5629
5633 5632 5633 5633 5630 5630 5630 5628 5629 5631 5631 5630 5631 5633 5634 5635 5637 5638 5639 5639 5639 5639 5640 5642 5642 5641 5640 5639 5638 5638 5637 5636 5635 5633 5632 5631 5629 5627 5626 5624 5621 5620 5618 5616
5627 5626 5627 5626 5625 5625 5625 5623 5623 5624 5626 5625 5626 5627 5628 5630 5631 5632 5632 5633 5634 5634 5634 5634 5634 5634 5633 5632 5632 5631 5630 5628 5626 5625 5622 5621 5619 5617 5615 5613 5611 5608 5606 5603
5620 5620 5621 5619 5618 5618 5618 5617 5617 5618 5620 5620 5621 5622 5623 5624 5626 5628 5628 5630 5630 5630 5630 5629 5628 5628 5627 5625 5624 5623 5622 5620 5618 5616 5614 5612 5610 5607 5604 5601 5598 5596 5594 5591
5613 5613 5613 5612 5611 5613 5611 5612 5612 5614 5618 5615 5616 5617 5617 5619 5621 5623 5623 5624 5625 5625 5625 5625 5624 5622 5621 5620 5618 5617 5615 5613 5611 5608 5606 5603 5601 5597 5594 5592 5589 5586 5583 5580
5606 5605 5607 5605 5605 5607 5607 5605 5608 5610 5609 5610 5612 5613 5614 5615 5617 5619 5620 5620 5620 5621 5621 5620 5620 5619 5617 5615 5613 5612 5609 5607 5605 5602 5599 5595 5592 5588 5584 5581 5578 5574 5571 5568
5600 5599 5600 5600 5600 5600 5601 5601 5602 5604 5604 5606 5608 5610 5612 5612 5614 5615 5615 5616 5616 5616 5616 5615 5615 5613 5612 5609 5607 5605 5603 5600 5597 5594 5592 5588 5584 5580 5575 5570 5566 5562 5558 5554
5593 5592 5593 5592 5594 5594 5595 5597 5598 5600 5600 5602 5605 5606 5608 5609 5610 5610 5610 5610 5610 5611 5611 5612 5611 5609 5606 5604 5602 5600 5597 5594 5591 5588 5584 5580 5575 5571 5565 5560 5555 5549 5545 5541
5587 5586 5586 5586 5587 5588 5591 5592 5594 5595 5597 5599 5601 5602 5603 5603 5603 5605 5606 5607 5607 5607 5606 5604 5603 5601 5599 5597 5594 5591 5589 5586 5582 5578 5574 5570 5565 5560 5555 5550 5543 5537 5532 5529
5579 5579 5578 5580 5579 5583 5587 5588 5588 5589 5592 5594 5595 5596 5597 5600 5601 5602 5603 5603 5602 5601 5599 5597 5596 5594 5592 5589 5586 5581 5579 5576 5573 5569 5563 5558 5554 5549 5544 5539 5533 5526 5521 5517
Wind_Speed
38 39 37 32 30 33 38 45 28 22 18 25 31 26 41 23 35 56 53 51 49 41 39 38 35 36 38 36 37 38 38 40 39 38 37 38 38 40 41 42 42 39 40 41
37 36 36 31 27 30 38 43 26 19 7 13 26 32 29 10 39 57 51 52 51 49 44 41 37 36 37 38 36 37 38 38 38 37 38 38 39 39 39 39 39 41 43 44
36 35 37 31 25 26 30 39 19 14 14 9 29 31 10 13 41 51 50 49 47 38 48 42 37 33 33 35 36 35 36 37 38 39 39 38 39 40 40 41 43 43 44 44
34 33 34 32 20 22 24 32 11 16 7 8 24 5 9 18 42 50 46 43 43 40 40 40 35 34 37 37 36 37 41 38 40 39 40 39 41 41 41 40 43 45 44 43
32 31 32 31 22 15 18 21 9 4 8 11 18 3 23 24 41 48 47 41 42 43 34 34 32 40 41 38 36 37 38 38 42 48 48 46 44 42 48 47 40 40 40 37
30 30 30 28 24 11 12 16 10 8 12 11 13 8 11 18 30 42 32 42 31 49 48 42 40 43 44 40 39 39 40 40 38 35 37 38 38 37 36 36 32 33 38 40
27 27 27 26 23 17 7 9 10 7 4 7 15 9 6 16 25 31 36 42 38 11 51 51 51 50 40 43 42 45 43 44 46 45 43 45 43 41 42 41 40 40 46 49
23 24 26 24 21 20 10 3 3 1 4 4 6 9 10 11 14 18 37 29 38 32 25 44 52 39 52 46 51 42 46 44 50 50 48 54 50 47 52 52 51 52 46 38
22 21 24 24 20 18 15 5 3 6 7 3 2 3 6 8 11 16 24 31 27 27 26 26 35 57 48 48 56 43 53 59 57 50 53 46 53 41 57 39 52 47 55 51
22 19 21 21 19 17 13 11 3 5 6 6 11 8 7 7 6 9 14 15 17 18 25 28 34 38 43 53 55 50 47 56 50 55 57 56 59 50 52 55 55 57 59 53
20 18 19 19 20 16 12 9 6 6 8 9 10 12 9 10 10 10 13 14 14 16 12 12 17 26 33 31 36 57 60 64 65 67 65 57 53 43 44 47 50 51 46 42
20 17 18 18 19 17 13 12 8 7 9 13 10 10 10 10 11 11 12 13 16 16 18 20 20 18 18 19 23 29 30 30 32 34 35 34 36 37 38 42 43 41 40 38
19 18 18 17 17 17 16 13 14 9 7 11 15 14 13 14 14 15 14 15 17 17 19 21 20 21 21 21 24 26 28 29 29 28 28 29 29 29 32 35 37 40 41 41
19 19 19 17 15 17 20 18 14 12 8 8 12 16 17 17 17 19 21 21 21 21 21 22 23 23 23 24 26 27 29 32 34 34 34 35 36 36 37 39 41 43 45 46
21 22 20 19 17 17 18 19 21 18 12 10 10 13 14 16 18 20 24 26 27 28 28 28 29 29 30 31 32 33 35 37 38 39 39 39 39 39 40 41 42 44 45 46
23 23 22 21 20 21 19 18 21 21 20 15 16 15 16 17 18 18 19 20 23 26 27 27 29 31 32 32 34 35 35 34 35 38 39 41 42 44 45 46 46 46 47 48
24 23 25 23 22 22 19 21 22 22 21 23 20 19 19 20 21 23 23 23 23 23 26 29 30 32 34 36 38 39 41 43 45 47 49 49 50 49 49 49 50 51 52 54
26 24 26 23 22 22 20 20 21 23 23 20 22 21 19 20 21 21 22 24 26 26 25 22 21 22 22 24 26 28 30 31 32 32 33 34 35 35 36 37 39 41 43 45
28 25 26 23 22 23 21 20 22 23 24 22 20 19 15 13 16 17 18 19 18 16 15 16 17 18 20 22 24 26 28 30 31 32 33 33 35 36 37 38 40 42 44 45
28 25 25 24 24 25 22 21 22 23 22 20 17 15 14 12 13 13 12 12 12 13 13 14 15 15 16 18 20 22 24 26 28 30 32 34 35 36 37 37 39 40 42 43
26 25 23 25 25 23 23 19 21 20 16 16 15 13 12 11 11 8 6 4 4 6 7 10 13 15 17 20 22 23 24 26 28 30 32 33 33 34 35 36 38 40 42 42
26 25 22 25 25 24 22 18 17 16 13 13 14 12 9 6 4 2 0 2 4 7 10 13 16 17 18 20 21 23 24 26 27 28 31 33 35 37 37 39 39 40 41 41
26 23 23 25 24 22 22 19 15 17 15 13 11 10 8 7 6 5 3 4 5 7 11 13 15 17 19 21 24 27 28 30 31 32 32 33 35 37 39 42 42 41 42 43
26 23 23 24 23 21 22 18 16 14 14 13 12 13 11 9 10 9 8 8 9 11 13 16 17 19 23 24 27 28 30 31 33 33 34 36 37 39 40 42 45 45 43 43
23 22 22 22 22 22 19 18 17 16 14 15 15 14 13 14 13 10 9 11 15 17 19 21 22 25 28 31 34 34 34 36 36 38 39 40 40 42 44 45 46 46 44 42
20 24 23 24 27 23 17 20 21 17 18 19 18 18 16 14 12 11 13 16 18 22 27 30 32 34 36 37 38 40 40 41 42 43 44 45 46 47 46 46 46 46 45 41
Wind_Direction
329 334 338 322 315 332 347 347 333 302 278 232 208 213 185 189 208 188 197 206 215 213 212 213 215 218 223 224 221 221 219 222 226 228 232 236 238 242 247 250 255 261 264 265
329 339 342 334 324 333 354 351 350 347 243 203 196 198 179 146 193 191 197 208 216 206 213 215 215 220 220 222 223 223 223 224 228 232 234 236 239 243 249 254 255 257 259 264
331 340 343 341 329 347 358 1 8 33 65 107 184 188 168 163 189 192 200 212 212 210 213 213 218 224 227 229 224 223 225 230 232 233 237 240 243 246 249 253 256 259 263 266
331 341 345 347 333 352 3 12 33 16 3 130 183 126 157 163 186 195 204 215 230 220 224 218 216 220 227 227 230 229 221 225 228 236 242 242 245 247 251 254 258 257 262 268
331 339 345 349 348 342 19 19 23 343 273 199 188 35 204 188 194 197 208 217 213 218 214 206 221 224 223 227 226 230 240 233 232 229 235 240 240 242 245 249 254 259 264 262
330 337 343 348 355 351 25 38 14 316 242 267 266 310 157 185 200 204 231 214 210 231 227 223 221 229 214 224 230 232 234 239 247 241 238 239 242 242 246 250 250 250 256 260
328 334 341 344 351 359 19 58 48 343 325 302 272 302 284 199 214 209 227 244 236 302 237 229 227 224 217 226 234 232 231 235 240 242 244 245 244 247 250 251 249 250 259 261
328 334 336 339 345 353 358 60 110 200 36 120 219 260 270 258 245 231 232 240 235 287 275 241 229 214 226 231 229 240 232 236 243 239 248 250 247 249 253 251 247 245 243 236
321 329 330 332 339 351 348 347 142 192 228 270 188 202 199 220 235 234 241 249 268 260 272 267 250 238 232 241 234 240 239 234 234 231 243 230 232 244 233 256 237 241 278 280
316 326 326 328 328 337 349 337 293 215 219 215 254 257 237 231 221 233 234 238 257 259 259 260 252 254 258 251 241 246 240 228 238 240 253 268 274 269 260 265 283 283 286 282
309 320 319 321 318 321 333 335 315 255 236 221 215 243 251 253 252 253 261 267 254 278 264 261 265 264 267 269 265 253 256 252 256 258 274 280 280 279 280 282 281 281 279 279
304 313 314 314 309 308 311 320 314 277 260 259 244 236 242 241 248 253 258 266 268 274 280 284 288 292 292 281 272 268 268 267 267 271 274 274 270 269 271 275 278 277 278 280
300 304 306 307 301 297 299 304 308 299 275 258 261 257 246 244 244 244 243 246 251 257 266 274 275 276 276 275 278 280 281 277 274 270 270 272 275 277 278 280 284 289 291 290
294 295 296 298 291 286 290 293 289 287 283 267 258 254 255 248 235 239 245 249 254 258 261 265 269 271 271 272 273 274 276 278 280 278 276 277 279 280 277 278 278 278 281 282
288 290 291 292 286 277 277 285 289 279 275 265 260 263 257 258 257 246 243 248 255 260 263 266 267 267 267 268 270 271 274 276 276 277 280 282 283 284 284 284 282 282 282 282
284 285 288 285 281 274 270 272 274 274 271 261 257 257 264 267 265 262 260 255 257 264 270 272 271 271 273 272 270 271 274 277 279 279 280 281 282 282 283 283 282 282 281 281
276 279 281 282 277 278 281 272 269 267 264 266 259 254 257 261 265 269 272 272 269 267 266 267 269 272 275 278 280 281 280 280 280 280 280 280 280 280 279 278 277 277 278 278
275 277 278 278 281 283 273 272 272 273 268 261 264 261 258 261 262 265 269 273 276 277 279 285 285 282 281 280 280 280 280 281 281 282 282 284 285 286 287 287 287 285 282 282
273 276 277 281 281 282 273 271 272 272 273 266 260 261 262 266 270 270 275 284 296 304 300 299 302 300 300 300 301 300 299 299 298 296 295 292 290 289 288 287 286 285 285 285
272 273 276 279 276 276 274 272 271 271 269 269 266 257 259 258 259 267 282 290 295 302 307 307 307 311 312 309 308 306 303 301 300 299 297 296 294 292 289 287 286 285 285 284
267 271 272 274 276 275 273 276 276 276 271 262 254 246 242 256 279 282 282 312 330 334 328 320 319 320 323 324 323 322 320 318 314 309 305 300 296 294 291 291 290 289 288 289
265 272 271 270 274 272 278 270 268 264 257 250 244 242 241 238 232 221 294 314 313 329 338 338 338 340 341 338 334 332 327 323 319 314 311 309 307 303 297 293 291 288 287 287
265 265 267 269 269 275 270 269 260 254 247 239 230 217 198 175 190 213 245 296 316 322 324 327 332 330 334 341 339 337 335 331 327 323 318 314 311 309 309 308 302 295 292 291
265 264 266 265 270 271 265 261 250 245 230 216 201 188 189 190 204 219 231 257 289 304 315 325 328 328 331 335 333 332 331 329 325 323 321 317 314 312 312 313 311 304 297 298
261 265 262 264 267 262 259 251 241 231 214 204 199 202 210 214 229 248 276 297 308 313 311 311 313 319 321 324 323 321 321 322 322 321 318 317 314 312 311 310 311 308 302 300
256 252 256 254 262 258 244 240 226 207 209 212 211 219 226 233 246 263 280 292 298 304 308 309 312 314 315 315 316 315 315 316 315 314 313 313 312 309 307 307 307 307 303 300